When you browse on this site, cookies collect data to enhance your experience and personalize the content and advertising you see.
Visit our Privacy Policy to learn more. By continuing to use the site, you agree to this use of cookies and data.
EN

Hourly Weather Kapadvanj

Today, 5 August, Wednesday

Time Temperature Precipitation Wind Pressure Humidity
00:00 +30°C° 0 mm 3 mps 740 mmHg 75%
01:00 +29°C° 0 mm 3 mps 739 mmHg 77%
02:00 +29°C° 0 mm 2 mps 739 mmHg 79%
03:00 +29°C° 0 mm 2 mps 739 mmHg 81%
04:00 +29°C° 0 mm 1 mps 739 mmHg 83%
05:00 +29°C° 0 mm 1 mps 739 mmHg 85%
06:00 +29°C° 0 mm 1 mps 739 mmHg 82%
07:00 +30°C° 0 mm 1 mps 740 mmHg 80%
08:00 +31°C° 0 mm 1 mps 740 mmHg 77%
09:00 +32°C° 0 mm 1 mps 740 mmHg 70%
10:00 +34°C° 0 mm 1 mps 740 mmHg 62%
11:00 +35°C° 0 mm 1 mps 740 mmHg 55%
12:00 +36°C° 0 mm 1 mps 739 mmHg 51%
13:00 +39°C° 0 mm 1 mps 739 mmHg 47%
14:00 +40°C° 0 mm 1 mps 739 mmHg 43%
15:00 +40°C° 0 mm 1 mps 738 mmHg 42%
16:00 +40°C° 0 mm 1 mps 738 mmHg 42%
17:00 +40°C° 0 mm 1 mps 737 mmHg 41%
18:00 +38°C° 0.9 mm 2 mps 738 mmHg 51%
19:00 +35°C° 0.9 mm 3 mps 738 mmHg 61%
20:00 +33°C° 0.9 mm 3 mps 739 mmHg 70%
21:00 +31°C° 0.8 mm 3 mps 739 mmHg 74%
22:00 +31°C° 0.8 mm 3 mps 739 mmHg 78%
23:00 +32°C° 0.8 mm 4 mps 740 mmHg 81%

Tomorrow, 6 August, Thursday

Time Temperature Precipitation Wind Pressure Humidity
00:00 +31°C° 0.3 mm 3 mps 739 mmHg 81%
01:00 +31°C° 0.3 mm 3 mps 739 mmHg 80%
02:00 +31°C° 0.3 mm 3 mps 739 mmHg 80%
03:00 +31°C° 0.2 mm 3 mps 739 mmHg 81%
04:00 +31°C° 0.2 mm 3 mps 738 mmHg 81%
05:00 +31°C° 0.2 mm 2 mps 738 mmHg 82%
06:00 +31°C° 2.1 mm 3 mps 739 mmHg 81%
07:00 +32°C° 2.1 mm 4 mps 739 mmHg 81%
08:00 +32°C° 2.1 mm 4 mps 740 mmHg 80%
09:00 +32°C° 1.4 mm 4 mps 739 mmHg 78%
10:00 +33°C° 1.4 mm 5 mps 739 mmHg 76%
11:00 +33°C° 1.4 mm 5 mps 739 mmHg 73%
12:00 +35°C° 0.3 mm 5 mps 738 mmHg 67%
13:00 +36°C° 0.3 mm 5 mps 738 mmHg 61%
14:00 +37°C° 0.3 mm 5 mps 737 mmHg 55%
15:00 +37°C° 0.8 mm 4 mps 737 mmHg 57%
16:00 +37°C° 0.8 mm 4 mps 736 mmHg 58%
17:00 +37°C° 0.8 mm 3 mps 736 mmHg 60%
18:00 +35°C° 3.2 mm 3 mps 736 mmHg 68%
19:00 +34°C° 3.2 mm 2 mps 736 mmHg 76%
20:00 +31°C° 3.2 mm 2 mps 737 mmHg 84%
21:00 +31°C° 2.3 mm 3 mps 737 mmHg 86%
22:00 +30°C° 2.3 mm 3 mps 737 mmHg 89%
23:00 +30°C° 2.3 mm 4 mps 737 mmHg 91%

Day after tomorrow, 7 August, Friday

Time Temperature Precipitation Wind Pressure Humidity
00:00 +29°C° 4.3 mm 5 mps 737 mmHg 91%
01:00 +29°C° 4.3 mm 6 mps 736 mmHg 92%
02:00 +28°C° 4.3 mm 7 mps 736 mmHg 92%
03:00 +28°C° 2.5 mm 8 mps 736 mmHg 92%
04:00 +28°C° 2.5 mm 8 mps 736 mmHg 92%
05:00 +28°C° 2.5 mm 9 mps 736 mmHg 92%
06:00 +28°C° 0.9 mm 9 mps 737 mmHg 91%
07:00 +28°C° 0.9 mm 8 mps 738 mmHg 90%
08:00 +28°C° 0.9 mm 8 mps 739 mmHg 89%
09:00 +31°C° 0.2 mm 8 mps 739 mmHg 83%
10:00 +32°C° 0.2 mm 8 mps 740 mmHg 77%
11:00 +33°C° 0.2 mm 9 mps 740 mmHg 71%
12:00 +34°C° 0.4 mm 9 mps 740 mmHg 69%
13:00 +34°C° 0.4 mm 10 mps 740 mmHg 66%
14:00 +36°C° 0.4 mm 10 mps 740 mmHg 63%
15:00 +36°C° 0.2 mm 10 mps 740 mmHg 64%
16:00 +34°C° 0.2 mm 9 mps 740 mmHg 65%
17:00 +34°C° 0.2 mm 9 mps 740 mmHg 67%
18:00 +33°C° 0 mm 8 mps 741 mmHg 70%
19:00 +32°C° 0 mm 7 mps 742 mmHg 73%
20:00 +30°C° 0 mm 6 mps 742 mmHg 76%
21:00 +30°C° 0 mm 6 mps 743 mmHg 78%
22:00 +30°C° 0 mm 5 mps 743 mmHg 79%
23:00 +29°C° 0 mm 5 mps 744 mmHg 80%

8 August, Saturday

Time Temperature Precipitation Wind Pressure Humidity
00:00 +29°C° 0.1 mm 5 mps 744 mmHg 82%
01:00 +29°C° 0.1 mm 4 mps 744 mmHg 83%
02:00 +29°C° 0.1 mm 4 mps 743 mmHg 84%
03:00 +29°C° 0.1 mm 4 mps 743 mmHg 84%
04:00 +29°C° 0.1 mm 4 mps 743 mmHg 85%
05:00 +28°C° 0.1 mm 4 mps 743 mmHg 85%
06:00 +29°C° 0 mm 5 mps 743 mmHg 82%
07:00 +30°C° 0 mm 6 mps 744 mmHg 78%
08:00 +32°C° 0 mm 7 mps 744 mmHg 75%
09:00 +33°C° 0.2 mm 7 mps 744 mmHg 71%
10:00 +34°C° 0.2 mm 8 mps 744 mmHg 68%
11:00 +35°C° 0.2 mm 8 mps 744 mmHg 64%
12:00 +35°C° 0.3 mm 8 mps 743 mmHg 62%
13:00 +37°C° 0.3 mm 8 mps 743 mmHg 60%
14:00 +37°C° 0.3 mm 8 mps 742 mmHg 58%
15:00 +36°C° 0.7 mm 7 mps 742 mmHg 61%
16:00 +35°C° 0.7 mm 7 mps 742 mmHg 64%
17:00 +34°C° 0.7 mm 6 mps 742 mmHg 67%
18:00 +33°C° 0.5 mm 6 mps 742 mmHg 70%
19:00 +33°C° 0.5 mm 6 mps 743 mmHg 73%
20:00 +32°C° 0.5 mm 5 mps 743 mmHg 75%
21:00 +32°C° 0.1 mm 5 mps 744 mmHg 77%
22:00 +30°C° 0.1 mm 5 mps 744 mmHg 79%
23:00 +30°C° 0.1 mm 5 mps 744 mmHg 81%

9 August, Sunday

Time Temperature Precipitation Wind Pressure Humidity
00:00 +29°C° 0 mm 5 mps 744 mmHg 82%
01:00 +29°C° 0 mm 4 mps 744 mmHg 83%
02:00 +29°C° 0 mm 4 mps 743 mmHg 84%
03:00 +29°C° 0 mm 4 mps 743 mmHg 85%
04:00 +28°C° 0 mm 4 mps 743 mmHg 86%
05:00 +28°C° 0 mm 3 mps 743 mmHg 87%
06:00 +29°C° 0 mm 4 mps 743 mmHg 84%
07:00 +30°C° 0 mm 4 mps 743 mmHg 82%
08:00 +30°C° 0 mm 5 mps 743 mmHg 80%
09:00 +32°C° 0.1 mm 5 mps 744 mmHg 75%
10:00 +33°C° 0.1 mm 5 mps 744 mmHg 71%
11:00 +35°C° 0.1 mm 5 mps 744 mmHg 66%
12:00 +35°C° 0.6 mm 5 mps 743 mmHg 65%
13:00 +36°C° 0.6 mm 6 mps 742 mmHg 64%
14:00 +36°C° 0.6 mm 6 mps 742 mmHg 63%
15:00 +36°C° 0.8 mm 5 mps 741 mmHg 64%
16:00 +35°C° 0.8 mm 5 mps 741 mmHg 66%
17:00 +35°C° 0.8 mm 5 mps 741 mmHg 67%
18:00 +34°C° 0.8 mm 4 mps 741 mmHg 72%
19:00 +33°C° 0.8 mm 4 mps 742 mmHg 76%
20:00 +31°C° 0.8 mm 3 mps 742 mmHg 81%
21:00 +31°C° 0.4 mm 3 mps 743 mmHg 81%
22:00 +30°C° 0.4 mm 3 mps 743 mmHg 81%
23:00 +30°C° 0.4 mm 3 mps 743 mmHg 82%

10 August, Monday

Time Temperature Precipitation Wind Pressure Humidity
00:00 +30°C° 0 mm 3 mps 743 mmHg 82%
01:00 +30°C° 0 mm 3 mps 742 mmHg 82%
02:00 +30°C° 0 mm 3 mps 742 mmHg 82%
03:00 +30°C° 0.2 mm 3 mps 742 mmHg 83%
04:00 +29°C° 0.2 mm 3 mps 742 mmHg 84%
05:00 +29°C° 0.2 mm 3 mps 742 mmHg 85%
06:00 +30°C° 0.1 mm 4 mps 742 mmHg 83%
07:00 +32°C° 0.1 mm 5 mps 743 mmHg 80%
08:00 +32°C° 0.1 mm 5 mps 743 mmHg 78%
09:00 +33°C° 0.7 mm 5 mps 743 mmHg 73%
10:00 +34°C° 0.7 mm 5 mps 743 mmHg 69%
11:00 +35°C° 0.7 mm 5 mps 743 mmHg 65%
12:00 +36°C° 0.5 mm 6 mps 743 mmHg 62%
13:00 +36°C° 0.5 mm 6 mps 742 mmHg 60%
14:00 +38°C° 0.5 mm 6 mps 742 mmHg 57%
15:00 +36°C° 0.2 mm 5 mps 741 mmHg 58%
16:00 +36°C° 0.2 mm 5 mps 741 mmHg 60%
17:00 +36°C° 0.2 mm 4 mps 741 mmHg 61%
18:00 +35°C° 1.1 mm 4 mps 741 mmHg 66%
19:00 +33°C° 1.1 mm 5 mps 742 mmHg 72%
20:00 +32°C° 1.1 mm 5 mps 742 mmHg 77%
21:00 +32°C° 0.7 mm 5 mps 742 mmHg 78%
22:00 +30°C° 0.7 mm 5 mps 743 mmHg 80%
23:00 +30°C° 0.7 mm 5 mps 743 mmHg 81%
Show more